Weather History for KAFO - March, 2014

Change the Weather History Date:

Wednesday, March 12, 2014

  Actual Average Record
Temperature  
Mean Temperature 18 °F -  
Max Temperature 32 °F 41 °F 42 °F (2015)
Min Temperature 5 °F 12 °F 5 °F (2014)
Degree Days  
Heating Degree Days 46    
Moisture  
Dew Point 14 °F    
Average Humidity 78    
Maximum Humidity 92    
Minimum Humidity 60    
Precipitation  
Precipitation 0.00 in - - ()
Sea Level Pressure  
Sea Level Pressure 30.33 in    
Wind  
Wind Speed 1 mph (SSW)    
Max Wind Speed 4 mph    
Max Gust Speed -    
Visibility 10 miles    
Events      
Averages and records for this station are not official NWS values.
T = Trace of Precipitation, MM = Missing Value Source: NWS Daily Summary

Daily Weather History Graph

Daily Weather History Graph

Search for Another Location

Airport or City:

Trip Planner

Search our weather history database for the weather conditions in past years. The results will help you decide how hot, cold, wet, or windy it might be!

Date:

Astronomy

Mar. 12, 2014 Rise Set
Actual Time 7:40 AM MDT 7:26 PM MDT
Civil Twilight 7:12 AM MDT 7:54 PM MDT
Nautical Twilight 6:40 AM MDT 8:27 PM MDT
Astronomical Twilight 6:06 AM MDT 9:00 PM MDT
Moon 3:56 PM MDT (3/12) 5:18 AM MDT (3/12)
Length of Visible Light 12h 42m
Length of Day
11h 45m
Waxing Gibbous, 86% of the Moon is Illuminated
Mar 12
Waxing Gibbous
Mar 16
Full
Mar 23
Last Quarter
Mar 30
New
Apr 7
First Quarter

Hourly Weather History & Observations

Time (MDT) Temp. Windchill Dew Point Humidity Pressure Visibility Wind Dir Wind Speed Gust Speed Precip Events Conditions
12:15 AM 17.6 °F 12.3 °F 14.0 °F 86% 30.36 in 10.0 mi South 3.5 mph - N/A   Clear
12:35 AM 17.6 °F - 12.2 °F 79% 30.37 in 10.0 mi Calm Calm - N/A   Clear
12:55 AM 19.4 °F - 14.0 °F 80% 30.37 in 10.0 mi Calm Calm - N/A   Clear
1:15 AM 17.6 °F 12.3 °F 14.0 °F 86% 30.36 in 10.0 mi SSE 3.5 mph - N/A   Clear
1:35 AM 17.6 °F 12.3 °F 14.0 °F 86% 30.36 in 10.0 mi South 3.5 mph - N/A   Clear
1:55 AM 15.8 °F - 10.4 °F 79% 30.36 in 10.0 mi Calm Calm - N/A   Clear
2:15 AM 14.0 °F - 10.4 °F 86% 30.36 in 10.0 mi Calm Calm - N/A   Clear
2:35 AM 15.8 °F - 12.2 °F 86% 30.37 in 10.0 mi Calm Calm - N/A   Clear
2:55 AM 14.0 °F - 10.4 °F 86% 30.38 in 10.0 mi Calm Calm - N/A   Clear
3:15 AM 15.8 °F - 12.2 °F 86% 30.38 in 10.0 mi Calm Calm - N/A   Clear
3:35 AM 15.8 °F 10.2 °F 12.2 °F 86% 30.37 in 10.0 mi SSW 3.5 mph - N/A   Clear
3:55 AM 14.0 °F - 10.4 °F 86% 30.37 in 10.0 mi Calm Calm - N/A   Clear
4:15 AM 12.2 °F - 10.4 °F 92% 30.37 in 10.0 mi Calm Calm - N/A   Clear
4:35 AM 12.2 °F - 10.4 °F 92% 30.37 in 10.0 mi Calm Calm - N/A   Clear
4:55 AM 10.4 °F - 8.6 °F 92% 30.37 in 10.0 mi Calm Calm - N/A   Clear
5:15 AM 12.2 °F - 8.6 °F 85% 30.37 in 10.0 mi Calm Calm - N/A   Clear
5:35 AM 12.2 °F - 10.4 °F 92% 30.37 in 10.0 mi Calm Calm - N/A   Clear
5:55 AM 10.4 °F - 8.6 °F 92% 30.38 in 10.0 mi Calm Calm - N/A   Clear
6:15 AM 12.2 °F - 8.6 °F 85% 30.39 in 10.0 mi Calm Calm - N/A   Clear
6:35 AM 12.2 °F 6.1 °F 10.4 °F 92% 30.39 in 10.0 mi SSW 3.5 mph - N/A   Clear
6:55 AM 12.2 °F - 8.6 °F 85% 30.39 in 10.0 mi Calm Calm - N/A   Clear
7:15 AM 8.6 °F - 5.0 °F 85% 30.40 in 10.0 mi Calm Calm - N/A   Clear
7:35 AM 8.6 °F - 3.2 °F 79% 30.40 in 10.0 mi Calm Calm - N/A   Clear
7:55 AM 8.6 °F 2.0 °F 5.0 °F 85% 30.40 in 10.0 mi South 3.5 mph - N/A   Clear
8:15 AM 8.6 °F - 5.0 °F 85% 30.40 in 10.0 mi Calm Calm - N/A   Clear
8:35 AM 5.0 °F - 1.4 °F 85% 30.41 in 10.0 mi Calm Calm - N/A   Clear
8:55 AM 8.6 °F - 3.2 °F 79% 30.41 in 10.0 mi Calm Calm - N/A   Clear
9:15 AM 12.2 °F - 8.6 °F 85% 30.41 in 10.0 mi Calm Calm - N/A   Clear
9:35 AM 14.0 °F - 8.6 °F 79% 30.41 in 10.0 mi Calm Calm - N/A   Clear
9:55 AM 14.0 °F - 10.4 °F 86% 30.40 in 10.0 mi Calm Calm - N/A   Clear
10:15 AM 17.6 °F - 10.4 °F 73% 30.40 in 10.0 mi Calm Calm - N/A   Clear
10:35 AM 17.6 °F - 10.4 °F 73% 30.39 in 10.0 mi Calm Calm - N/A   Clear
10:55 AM 17.6 °F - 10.4 °F 73% 30.40 in 10.0 mi Calm Calm - N/A   Clear
11:15 AM 17.6 °F - 10.4 °F 73% 30.39 in 10.0 mi Calm Calm - N/A   Clear
11:35 AM 19.4 °F - 12.2 °F 74% 30.38 in 10.0 mi Calm Calm - N/A   Clear
11:55 AM 19.4 °F - 12.2 °F 74% 30.37 in 10.0 mi Calm Calm - N/A   Clear
12:15 PM 21.2 °F - 14.0 °F 74% 30.37 in 10.0 mi Calm Calm - N/A   Clear
12:35 PM 23.0 °F - 14.0 °F 68% 30.36 in 10.0 mi Calm Calm - N/A   Clear
12:55 PM 23.0 °F - 15.8 °F 74% 30.36 in 10.0 mi Calm Calm - N/A   Clear
1:15 PM 23.0 °F - 15.8 °F 74% 30.35 in 10.0 mi Calm Calm - N/A   Clear
1:35 PM 24.8 °F - 17.6 °F 74% 30.35 in 10.0 mi Calm Calm - N/A   Clear
1:55 PM 26.6 °F - 17.6 °F 69% 30.34 in 10.0 mi Calm Calm - N/A   Clear
2:15 PM 26.6 °F - 19.4 °F 74% 30.33 in 10.0 mi Calm Calm - N/A   Clear
2:35 PM 28.4 °F - 19.4 °F 69% 30.31 in 10.0 mi Calm Calm - N/A   Clear
2:55 PM 30.2 °F - 19.4 °F 64% 30.30 in 10.0 mi Calm Calm - N/A   Clear
3:15 PM 30.2 °F - 21.2 °F 69% 30.30 in 10.0 mi Calm Calm - N/A   Clear
3:35 PM 30.2 °F 26.7 °F 21.2 °F 69% 30.30 in 10.0 mi West 3.5 mph - N/A   Clear
3:55 PM 32.0 °F - 19.4 °F 60% 30.29 in 10.0 mi Calm Calm - N/A   Clear
4:15 PM 32.0 °F - 21.2 °F 64% 30.28 in 10.0 mi Calm Calm - N/A   Clear
4:35 PM 32.0 °F - 21.2 °F 64% 30.28 in 10.0 mi Calm Calm - N/A   Clear
4:55 PM 32.0 °F - 23.0 °F 69% 30.28 in 10.0 mi Calm Calm - N/A   Clear
5:15 PM 32.0 °F - 21.2 °F 64% 30.27 in 10.0 mi Calm Calm - N/A   Clear
5:35 PM 32.0 °F - 19.4 °F 60% 30.26 in 10.0 mi Calm Calm - N/A   Clear
5:55 PM 32.0 °F - 19.4 °F 60% 30.26 in 10.0 mi Calm Calm - N/A   Clear
6:15 PM 32.0 °F - 21.2 °F 64% 30.25 in 10.0 mi Calm Calm - N/A   Clear
6:35 PM 32.0 °F - 21.2 °F 64% 30.24 in 10.0 mi Calm Calm - N/A   Clear
6:55 PM 30.2 °F - 21.2 °F 69% 30.25 in 10.0 mi Calm Calm - N/A   Clear
7:15 PM 28.4 °F - 21.2 °F 74% 30.25 in 10.0 mi Calm Calm - N/A   Clear
7:35 PM 26.6 °F - 21.2 °F 80% 30.24 in 10.0 mi Calm Calm - N/A   Clear
7:55 PM 26.6 °F - 21.2 °F 80% 30.24 in 10.0 mi Calm Calm - N/A   Clear
8:15 PM 26.6 °F - 21.2 °F 80% 30.24 in 10.0 mi Calm Calm - N/A   Clear
8:35 PM 24.8 °F - 17.6 °F 74% 30.24 in 10.0 mi Calm Calm - N/A   Clear
8:55 PM 21.2 °F - 17.6 °F 86% 30.24 in 10.0 mi Calm Calm - N/A   Clear
9:15 PM 23.0 °F - 17.6 °F 80% 30.24 in 10.0 mi Calm Calm - N/A   Clear
9:35 PM 23.0 °F - 17.6 °F 80% 30.24 in 10.0 mi Calm Calm - N/A   Clear
9:55 PM 23.0 °F - 17.6 °F 80% 30.24 in 10.0 mi Calm Calm - N/A   Clear
10:15 PM 21.2 °F - 17.6 °F 86% 30.23 in 10.0 mi Calm Calm - N/A   Clear
10:35 PM 19.4 °F 14.3 °F 15.8 °F 86% 30.24 in 10.0 mi WNW 3.5 mph - N/A   Clear
10:56 PM 21.2 °F - 15.8 °F 80% 30.23 in 10.0 mi Calm Calm - N/A   Clear
11:15 PM 21.2 °F - 15.8 °F 80% 30.22 in 10.0 mi Calm Calm - N/A   Clear
11:35 PM 19.4 °F - 14.0 °F 80% 30.22 in 10.0 mi Calm Calm - N/A   Clear
11:55 PM 19.4 °F - 14.0 °F 80% 30.22 in 10.0 mi Calm Calm - N/A   Clear